This is the latest recevied weather packets stored in our database for station/object KC5DAQ-28. If no packets are shown the sender has not sent any weather packets the latest 1 day(s).
| Time | Temp. | Humidity | Pressure | Rain* | Wind** | Luminosity | Snow |
|---|---|---|---|---|---|---|---|
| 1778071083 | 24.44° C | 92% | 1003.9 hPa | 0 mm | - | 49 W/m² | - |
| 1778071024 | 24.44° C | 92% | 1003.8 hPa | 0 mm | - | 48 W/m² | - |
| 1778070543 | 24.44° C | 92% | 1003.8 hPa | 0 mm | - | 37 W/m² | - |
| 1778070484 | 24.44° C | 92% | 1003.7 hPa | 0 mm | - | 33 W/m² | - |
| 1778070425 | 24.44° C | 92% | 1003.8 hPa | 0 mm | - | 35 W/m² | - |
| 1778070182 | 24.44° C | 92% | 1003.8 hPa | 0 mm | - | 30 W/m² | - |
| 1778070123 | 24.44° C | 92% | 1003.8 hPa | 0 mm | - | 23 W/m² | - |
| 1778069763 | 24.44° C | 92% | 1003.7 hPa | 0 mm | - | 19 W/m² | - |
| 1778069703 | 23.89° C | 92% | 1003.7 hPa | 0 mm | - | 19 W/m² | - |
| 1778069406 | 23.89° C | 92% | 1003.6 hPa | 0 mm | - | 18 W/m² | - |
| 1778069344 | 23.89° C | 92% | 1003.5 hPa | 0 mm | - | 19 W/m² | - |
| 1778069106 | 23.89° C | 92% | 1003.6 hPa | 0 mm | - | 19 W/m² | - |
| 1778068984 | 23.89° C | 92% | 1003.5 hPa | 0 mm | - | 18 W/m² | - |
| 1778068863 | 23.89° C | 92% | 1003.6 hPa | 0 mm | - | 19 W/m² | - |
| 1778068622 | 23.89° C | 92% | 1003.4 hPa | 0 mm | - | 16 W/m² | - |
| 1778068563 | 23.89° C | 92% | 1003.4 hPa | 0 mm | - | 14 W/m² | - |
| 1778068264 | 23.89° C | 92% | 1003.4 hPa | 0 mm | - | 11 W/m² | - |
| 1778068083 | 23.89° C | 92% | 1003.4 hPa | 0 mm | - | 9 W/m² | - |
| 1778066884 | 23.89° C | 92% | 1003.1 hPa | 0 mm | - | 0 W/m² | - |
| 1778066823 | 23.89° C | 92% | 1003.1 hPa | 0 mm | - | 0 W/m² | - |
| 1778066344 | 23.89° C | 92% | 1003.1 hPa | 0 mm | - | 0 W/m² | - |
| 1778066283 | 23.89° C | 92% | 1003.2 hPa | 0 mm | - | 0 W/m² | - |
| 1778066162 | 23.89° C | 92% | 1003.1 hPa | 0 mm | - | 0 W/m² | - |
| 1778066045 | 23.89° C | 92% | 1003.1 hPa | 0 mm | - | 0 W/m² | - |
| 1778065563 | 23.89° C | 92% | 1002.8 hPa | 0 mm | - | 0 W/m² | - |
* Rain latest hour (hover to see other rain measurements)
** Current wind speed in m/s (hover to see current wind gust speed)